Theta_e
309 309 310 310 310 310 310 309 309 308 308 306 303 304 297 298 296 307 309 312 310 302 299 304 303 299 301 306 304 305 303 302 303 301 302 301 304 303 303 303 302 304 303 304 303 304 303 306 300 300 303 304 307 308 309 309 308 307 304 306 305 323 300 299 299 301 304 306 307 308 308 307 303 303 302 302 300 300 296 294 295 295 296 295 294 293 293
309 309 310 310 310 309 310 309 309 309 309 306 305 300 298 298 298 302 311 314 310 300 293 297 299 301 304 304 303 305 304 303 301 301 302 300 301 302 303 305 306 303 306 305 302 307 301 308 306 304 305 303 309 308 309 309 306 305 302 302 306 301 300 297 293 294 295 299 302 302 305 306 301 298 301 303 302 303 302 304 302 298 296 295 293 289 295
309 309 311 310 310 309 308 308 309 309 310 309 305 298 299 297 301 301 305 315 308 297 299 299 299 302 303 303 301 302 303 305 305 304 302 304 303 303 302 304 305 304 306 304 304 306 306 303 308 307 311 306 307 308 308 310 307 309 311 324 308 301 299 298 291 289 287 288 289 290 294 298 300 302 302 304 303 301 300 297 298 291 297 298 292 295 296
310 310 310 310 310 309 308 308 309 309 309 309 306 301 299 298 292 301 303 304 305 304 306 303 299 298 300 298 301 303 302 306 307 305 304 305 305 304 304 306 306 304 304 302 302 305 309 305 304 308 307 311 314 313 314 310 307 319 330 325 309 303 305 300 297 295 292 295 294 300 303 299 300 300 302 302 303 302 301 297 294 294 290 297 293 302 301
310 310 310 310 310 308 308 308 309 310 309 309 304 302 299 300 297 297 292 299 300 299 302 299 299 295 300 294 301 301 303 304 304 307 302 305 303 304 303 304 303 305 304 302 305 307 306 308 306 310 310 311 313 314 315 314 316 331 326 325 306 304 300 301 301 301 301 302 302 305 305 301 302 300 302 301 302 301 300 298 296 297 296 293 291 299 303
310 310 310 310 309 308 308 308 309 309 309 309 305 299 302 294 301 301 300 292 289 294 295 298 297 301 302 299 304 302 303 304 302 305 306 306 307 301 304 305 306 305 303 304 302 306 307 308 307 313 312 309 310 310 312 312 322 327 318 320 306 302 298 302 303 302 304 304 305 307 305 305 303 303 301 302 302 301 300 299 299 302 299 295 299 303 304
311 311 311 310 309 308 308 309 309 309 308 308 302 298 304 303 301 301 304 294 296 296 297 299 300 300 301 300 304 302 302 302 305 304 303 304 304 308 302 308 308 308 308 307 304 308 304 306 316 315 307 309 307 306 309 313 313 312 309 313 308 304 298 303 304 303 305 305 305 304 304 303 304 304 303 303 303 301 301 301 305 304 301 302 303 304 305
311 311 311 311 310 309 309 308 309 309 308 307 303 301 297 297 296 296 302 300 298 298 299 301 301 298 304 301 302 302 301 300 303 306 305 303 306 311 307 307 308 308 309 308 307 312 311 310 309 313 309 305 308 307 310 307 310 310 308 310 309 306 299 310 304 301 302 306 306 303 302 303 303 305 305 304 302 302 302 303 307 308 307 306 305 305 305
311 311 311 310 310 309 309 309 309 308 308 302 300 300 302 300 303 303 297 294 295 300 300 298 299 297 300 299 301 302 300 299 304 306 309 308 308 309 307 308 308 309 311 310 309 311 310 310 309 310 310 304 310 307 307 310 307 308 308 309 309 307 300 308 301 297 299 304 303 303 303 303 302 303 305 305 304 306 304 306 308 305 305 305 306 303 304
311 311 311 310 310 309 309 309 309 308 308 302 300 297 303 302 305 304 299 292 300 294 298 298 298 296 301 301 302 300 299 301 309 304 313 314 313 312 311 310 309 308 311 307 309 311 311 311 313 312 312 312 312 310 311 310 311 307 307 310 306 305 301 299 296 294 297 302 302 302 302 301 299 301 301 304 305 306 307 310 315 311 307 303 300 302 307
311 311 311 310 310 310 310 310 310 309 307 302 299 298 300 299 298 300 300 291 293 295 294 295 295 300 299 301 300 302 300 302 309 301 303 311 311 314 312 309 308 305 311 312 315 315 314 313 314 315 313 312 311 312 312 313 312 311 311 307 310 310 304 298 300 294 296 303 303 303 298 293 294 306 310 310 305 305 305 306 311 314 311 305 306 308 310
310 311 310 310 310 310 311 311 310 309 307 306 305 301 302 303 302 300 295 289 290 295 293 292 294 297 296 299 301 299 300 301 303 307 303 310 312 312 311 310 309 304 312 317 315 313 314 317 315 313 313 312 312 312 313 311 311 313 310 308 308 309 309 301 301 296 296 302 301 296 291 292 305 314 312 310 310 310 308 309 311 310 311 311 310 310 313
310 310 310 310 310 310 310 311 311 310 309 307 305 299 303 305 301 299 297 294 290 292 290 292 297 296 298 300 299 299 301 303 305 307 306 307 307 308 310 311 309 310 314 314 312 311 310 308 308 311 310 311 311 312 311 311 310 312 312 311 309 305 304 305 301 301 299 297 294 289 291 303 310 311 311 316 312 310 308 306 309 310 310 310 310 311 312
310 310 310 310 310 310 310 310 310 311 309 308 304 303 304 304 300 299 298 293 292 294 295 294 295 296 297 298 299 299 301 301 304 306 304 307 306 306 309 313 312 312 313 312 310 311 304 302 300 301 302 305 305 305 310 310 311 310 310 311 311 310 307 303 301 304 296 296 294 294 301 304 303 306 308 306 304 305 303 299 305 314 314 311 310 311 313
310 310 310 310 310 310 310 310 311 311 311 308 306 304 303 303 303 301 302 299 293 295 295 289 294 295 297 297 299 296 297 298 300 300 306 308 307 309 311 311 311 309 310 308 303 308 304 304 298 295 298 297 294 298 307 307 311 311 311 310 313 311 305 304 295 297 300 295 292 292 289 291 297 304 310 312 310 309 308 303 304 311 312 315 313 311 312
310 310 310 310 310 310 310 310 311 311 310 308 306 304 304 305 305 304 302 299 296 288 292 298 299 297 296 296 299 296 295 296 297 300 302 305 306 309 311 310 310 311 313 310 309 306 305 300 297 296 294 297 303 302 299 304 305 310 309 311 312 311 308 304 301 299 297 294 288 291 291 294 301 308 309 310 312 312 310 305 299 308 312 315 312 311 311
309 310 310 310 310 310 310 310 310 310 309 307 305 304 302 306 303 302 300 299 297 292 299 301 301 300 295 295 297 295 296 295 297 297 298 300 304 307 308 308 311 315 314 307 305 302 299 299 301 300 300 304 302 301 303 303 303 304 309 312 307 307 307 303 299 298 298 295 292 292 295 298 307 309 311 312 311 310 305 294 296 309 314 314 316 314 312
310 310 309 309 309 309 310 310 310 310 310 310 306 303 302 306 307 305 302 299 296 296 299 302 299 295 293 295 294 298 299 298 298 300 302 302 308 305 304 305 304 313 317 308 306 301 299 299 295 296 295 305 307 304 295 302 301 300 302 303 303 303 303 303 298 297 298 300 295 296 299 310 313 313 314 317 314 307 296 292 303 314 314 315 315 314 313
310 310 309 309 310 310 310 310 310 310 311 308 307 305 303 306 307 306 302 300 299 292 300 304 303 300 302 303 299 300 299 297 298 294 292 295 302 304 309 307 309 302 310 306 305 301 299 300 303 300 297 299 307 299 304 300 300 304 305 301 300 302 304 302 301 297 296 296 294 294 301 314 314 315 316 319 311 296 296 306 313 317 317 317 318 317 317
310 310 310 309 308 309 310 310 310 310 310 309 307 301 303 306 307 307 302 298 299 297 300 301 302 299 302 299 296 295 297 298 299 296 295 290 300 302 306 300 308 305 308 308 303 306 303 299 300 303 298 298 302 309 304 306 309 305 306 306 301 303 298 296 298 303 302 299 295 292 288 303 315 315 314 318 304 306 311 315 318 319 317 317 317 318 317
309 309 309 308 308 309 309 309 309 310 310 310 308 303 301 305 307 308 308 304 299 294 296 303 304 302 303 302 302 302 300 297 298 294 297 298 301 301 290 298 303 305 305 304 300 303 303 301 302 303 305 306 308 308 300 301 306 311 311 309 308 311 301 297 302 304 295 295 292 292 301 309 316 315 308 313 315 315 320 317 312 317 319 317 317 318 319
308 308 308 308 308 308 308 308 309 309 309 310 308 304 300 303 306 308 308 307 300 297 298 303 305 304 305 306 305 305 304 304 305 305 298 296 301 299 299 303 303 305 310 309 305 303 305 303 305 303 301 302 306 301 304 300 298 304 311 309 301 308 305 304 298 308 302 301 304 311 315 315 315 315 314 315 318 319 319 317 316 315 316 319 318 319 321
308 309 308 308 308 308 308 308 309 309 309 310 309 302 300 302 304 308 306 301 303 304 306 304 305 305 308 309 311 310 309 310 309 306 303 298 296 300 302 303 303 309 311 310 303 302 304 303 301 305 303 306 303 302 303 303 300 305 303 310 308 315 316 315 310 308 313 313 312 314 315 314 315 316 316 316 317 318 317 316 316 317 318 320 320 321 323
308 308 308 308 308 308 308 308 309 309 309 310 309 304 302 303 304 305 304 303 300 295 299 301 299 297 301 303 308 311 313 311 312 308 308 303 294 295 303 307 307 308 308 308 310 303 304 304 304 306 302 307 307 302 296 299 302 305 306 304 308 311 314 313 308 312 303 298 310 312 313 314 314 315 317 317 317 316 317 315 316 316 319 319 321 324 326
308 309 308 308 308 308 308 309 308 309 309 309 309 309 307 303 304 304 300 295 297 294 290 294 297 302 306 310 310 307 312 313 316 309 306 304 300 296 297 304 308 305 302 305 308 306 306 304 303 303 299 308 308 297 306 302 302 307 300 304 306 306 313 308 309 307 300 303 311 316 316 315 316 315 314 314 315 315 316 316 315 315 315 315 316 321 325
307 308 308 308 308 308 308 308 308 309 309 309 308 303 301 301 304 305 303 304 303 300 292 291 296 305 308 306 305 308 310 309 309 310 307 306 304 302 300 305 304 310 309 309 308 303 301 304 305 305 300 303 309 304 306 308 303 311 303 303 308 309 317 304 308 306 309 312 314 315 313 312 313 315 316 318 316 315 314 315 315 314 313 313 314 316 319
307 307 309 308 308 308 308 308 308 308 309 309 307 305 303 303 305 303 301 302 297 293 294 292 297 301 304 301 306 308 310 309 305 302 306 306 305 304 304 304 302 301 302 301 304 305 304 304 302 303 305 305 307 305 307 306 308 305 304 309 314 309 304 309 308 304 303 304 308 315 305 305 310 313 316 318 318 316 313 313 313 314 314 313 314 315 316
308 308 309 308 308 308 308 308 308 308 309 309 307 305 304 302 304 306 307 306 301 293 293 293 293 297 303 300 306 309 310 311 302 302 302 305 305 303 300 300 301 301 300 299 295 298 299 299 298 303 304 305 303 302 307 308 307 304 303 305 311 305 307 306 303 301 303 308 313 315 311 311 312 313 315 315 316 316 316 315 312 314 316 316 314 316 320
308 308 308 308 308 308 308 308 308 308 309 307 304 303 302 304 306 307 308 309 306 301 297 297 299 296 292 298 308 306 308 307 302 301 301 302 304 304 301 300 299 298 300 300 299 300 299 300 304 301 301 305 304 303 302 298 298 297 302 305 307 315 316 312 307 308 308 313 317 316 312 310 313 318 317 314 316 312 312 315 314 313 315 317 316 317 314
308 308 308 308 308 307 307 308 308 308 308 304 299 300 299 302 306 307 309 308 305 301 293 291 288 293 302 303 302 306 307 305 303 302 302 301 301 303 302 300 300 305 302 299 299 295 297 299 301 302 306 310 302 302 298 297 299 302 307 305 305 306 307 307 309 308 307 311 313 314 312 313 314 312 312 311 316 315 313 314 315 316 318 319 312 311 312
307 308 308 308 308 307 308 308 308 308 308 300 299 295 294 292 299 308 308 307 305 300 295 294 290 297 298 304 304 303 305 305 301 301 301 302 301 302 304 303 303 307 298 298 298 295 300 296 298 299 303 306 305 299 298 296 297 300 305 305 304 304 304 305 307 307 309 310 311 310 309 309 311 308 309 311 312 313 312 312 314 322 320 313 312 312 312
307 308 307 308 308 308 308 308 308 308 303 299 296 296 298 302 305 307 307 306 304 300 295 292 293 294 295 301 306 310 308 307 304 304 305 305 302 303 304 303 301 303 302 297 300 296 296 301 299 300 298 304 305 296 297 296 296 298 304 304 305 306 305 305 307 308 308 308 307 305 305 306 309 307 307 312 312 312 311 310 311 311 317 314 312 312 312
308 308 308 308 308 308 308 308 308 307 302 304 306 307 307 307 307 306 307 303 301 298 299 294 290 294 292 296 304 307 307 303 301 301 302 306 304 303 301 304 302 300 315 300 293 290 298 300 301 296 298 305 299 298 295 295 296 299 301 306 303 303 305 307 308 308 308 307 306 304 304 307 309 311 311 312 312 312 311 311 312 312 312 312 311 311 311
307 307 308 307 308 308 308 308 309 308 307 302 298 301 305 307 306 306 304 303 299 299 298 292 291 291 293 302 298 302 304 296 299 300 297 305 308 301 300 300 302 296 299 295 297 296 297 302 298 297 300 299 302 296 292 296 300 299 302 303 304 306 306 307 307 307 309 309 310 309 309 310 311 311 311 310 310 310 312 311 312 311 310 310 311 311 311
307 307 307 307 307 308 308 308 304 301 296 297 299 302 306 307 309 310 307 301 293 293 293 293 294 289 290 294 296 299 304 298 298 299 296 301 310 300 303 298 297 294 298 302 299 295 297 297 298 296 295 298 297 291 296 299 305 305 304 304 304 305 307 306 306 307 308 309 309 309 310 310 308 307 307 307 307 307 307 308 309 309 308 309 310 311 311
307 307 307 307 307 307 305 305 303 299 296 296 298 310 314 314 313 307 305 305 299 294 293 295 295 291 293 290 291 299 302 296 300 302 301 306 302 306 303 301 293 296 306 297 293 298 293 303 297 292 297 295 295 298 302 306 305 306 307 307 307 307 306 306 306 307 308 309 309 309 308 308 307 306 306 306 306 306 305 305 306 306 307 309 309 310 310
307 307 307 307 304 301 297 298 303 301 299 303 309 316 314 311 309 307 304 302 305 303 295 294 291 293 295 294 298 301 299 292 299 299 298 296 296 300 299 302 296 302 298 298 298 296 296 305 295 294 297 298 301 306 307 307 307 306 306 307 308 308 308 309 310 308 307 307 308 307 307 306 306 306 306 306 306 306 306 305 305 305 305 307 308 309 310
307 307 301 298 297 294 294 297 300 305 313 312 313 306 302 303 295 298 300 296 300 302 296 296 291 294 298 296 292 301 299 295 298 294 297 299 298 297 299 299 300 300 292 295 299 304 302 300 298 299 301 305 307 308 308 308 309 309 308 308 308 308 308 308 308 306 305 303 303 304 305 304 304 305 306 306 307 307 307 307 307 308 308 309 308 310 310
304 301 299 298 295 293 295 300 308 313 308 307 307 298 295 299 295 293 293 295 298 292 297 294 292 296 295 294 296 302 300 296 295 297 294 301 297 294 300 292 298 299 289 294 299 305 296 297 300 300 299 303 304 306 309 309 310 310 311 310 310 310 309 309 308 306 305 304 305 307 305 304 304 305 306 306 307 308 308 308 309 309 309 309 309 312 312
299 295 295 295 294 296 306 308 311 308 304 297 298 294 290 296 289 284 296 289 289 295 297 291 297 297 298 295 295 294 306 298 292 294 297 298 302 295 299 298 299 295 289 292 295 304 295 293 296 297 296 302 303 307 309 309 309 310 311 311 311 310 310 310 310 310 309 309 309 309 309 310 312 308 307 307 308 306 307 308 309 308 308 309 316 314 311
297 296 297 294 299 301 302 305 306 303 297 293 292 294 292 285 291 293 293 288 288 291 299 295 296 295 298 299 298 295 303 308 303 303 300 296 304 301 297 295 300 291 291 293 300 302 299 297 296 296 297 302 304 307 309 309 310 310 311 311 311 310 310 309 310 310 310 309 309 308 309 310 308 308 309 309 308 307 308 308 309 309 310 309 310 311 314
300 300 302 303 303 303 303 301 300 295 294 295 288 281 286 288 293 291 292 286 287 292 293 295 294 294 294 297 300 301 300 304 303 302 297 294 300 296 296 297 298 292 290 297 304 299 298 294 292 295 301 304 306 308 308 308 309 309 309 310 310 310 310 309 309 309 310 309 308 308 308 308 308 308 309 308 308 308 308 309 310 310 311 311 314 315 316
305 305 304 301 301 298 299 288 292 293 281 281 280 278 284 281 284 283 288 293 296 295 295 300 298 301 301 303 300 301 299 304 299 298 296 293 300 301 295 291 293 286 294 302 297 295 294 294 294 297 302 303 306 307 308 308 308 309 309 309 309 309 309 309 309 308 309 309 309 308 308 308 308 309 311 310 310 310 310 311 311 311 311 312 314 315 315
305 304 299 299 292 295 296 282 294 291 284 283 279 278 282 282 284 288 288 288 294 295 296 294 295 294 292 300 299 299 302 302 304 300 297 300 295 293 292 287 291 296 299 294 294 293 295 297 299 301 303 305 307 307 307 308 307 308 309 310 310 310 309 309 309 309 308 309 309 309 310 309 309 310 310 310 312 310 310 310 312 313 313 313 314 314 315
296 292 289 287 284 289 287 281 287 284 279 282 285 283 286 283 285 288 287 295 300 294 299 300 299 300 298 302 302 301 300 296 301 297 293 296 290 292 291 289 295 295 291 290 293 295 297 295 300 301 302 303 305 306 308 308 308 308 308 309 309 309 308 308 308 308 308 308 308 310 309 309 309 309 310 310 311 312 311 310 312 312 312 314 314 315 315
294 289 288 284 282 284 285 282 284 280 286 291 288 288 287 288 291 293 297 299 299 298 298 300 301 302 297 300 297 295 299 299 294 296 297 295 290 288 295 300 297 289 289 289 290 291 294 296 298 300 303 304 305 306 308 309 310 310 309 307 308 308 308 308 308 308 309 309 310 309 309 309 309 309 309 310 310 311 311 311 312 313 314 314 315 315 315
290 295 290 287 283 284 290 283 284 287 290 291 292 292 292 293 298 298 302 301 299 300 301 302 302 302 298 296 297 295 297 298 294 296 295 290 290 292 296 291 286 289 288 290 291 293 295 297 300 302 304 305 306 307 308 309 310 309 309 308 308 309 310 310 310 309 310 311 310 310 309 309 310 310 311 310 310 310 312 315 314 315 315 315 315 316 315
287 292 291 281 280 284 284 287 292 293 295 294 294 296 298 299 297 296 299 301 301 300 299 300 297 297 295 299 299 293 295 295 293 291 296 294 294 290 283 289 289 293 294 292 292 296 296 299 301 303 304 306 306 306 307 308 309 309 309 308 308 310 310 310 310 310 311 310 310 310 310 310 312 311 311 310 311 311 313 313 314 314 314 315 315 315 315
296 290 285 283 288 288 289 293 292 290 292 295 297 297 296 296 296 297 300 301 300 299 301 299 299 297 293 296 294 292 288 293 287 285 292 289 284 282 284 283 289 288 294 296 294 297 298 300 304 305 305 307 306 308 307 308 309 309 310 309 309 310 311 311 311 312 311 311 310 310 311 312 312 312 311 310 310 311 312 312 313 313 313 314 315 315 315
289 287 291 287 287 289 292 293 292 289 292 294 295 295 296 294 295 296 301 300 301 300 300 299 300 294 292 294 286 288 288 291 292 288 288 285 289 288 288 287 290 292 293 296 297 299 301 303 303 303 304 305 308 307 307 309 312 312 310 310 310 311 311 312 312 312 312 310 311 311 312 311 310 310 310 310 311 312 313 312 313 313 313 313 315 315 315
292 289 289 295 290 287 291 288 287 288 289 292 294 295 295 295 296 297 301 301 300 298 296 294 292 289 285 284 283 281 284 294 290 288 287 289 293 291 289 290 294 297 299 301 301 302 302 303 303 303 304 304 306 307 308 309 309 309 310 310 311 311 312 312 312 312 312 312 311 317 313 311 312 312 312 312 313 313 312 312 313 312 312 313 314 313 313
286 285 287 293 295 295 295 295 295 295 296 296 296 296 296 295 298 299 304 301 299 294 292 294 291 286 283 284 288 292 294 288 286 291 290 293 296 292 293 295 297 298 299 300 301 304 306 305 305 307 304 306 310 308 308 310 309 309 310 311 311 311 311 311 311 311 311 312 311 310 311 312 313 312 313 313 311 310 308 309 311 311 312 312 313 314 313
Wind_Speed
19 19 19 19 20 20 19 21 22 22 24 13 12 8 4 1 7 13 16 13 1 2 3 2 2 4 3 3 10 10 11 11 9 10 5 7 7 7 9 11 9 11 11 14 12 12 9 7 4 4 8 12 16 12 23 19 14 14 8 11 9 8 4 4 4 5 8 9 8 11 9 8 4 5 3 9 9 6 7 5 6 6 1 2 1 1 3
18 20 20 19 18 18 19 20 21 21 19 11 10 5 3 4 6 8 4 4 3 2 4 3 5 5 7 8 10 9 9 9 9 8 9 6 5 9 7 10 10 11 12 10 9 4 8 7 6 3 4 8 17 16 23 20 12 11 6 10 7 6 5 6 3 3 2 7 4 5 2 5 4 4 5 6 5 9 5 4 1 3 5 8 8 4 4
17 19 18 16 17 17 19 20 20 20 19 12 6 5 5 6 5 7 8 4 3 2 3 4 6 5 7 7 10 10 8 9 14 13 11 8 9 7 10 11 8 9 11 16 16 14 11 5 5 2 2 2 3 11 16 22 15 16 12 16 9 7 5 8 9 9 7 5 8 8 7 6 2 4 6 8 9 8 4 4 2 4 1 5 4 3 7
16 17 17 16 16 17 18 20 20 21 20 15 6 4 3 3 4 6 4 2 3 1 4 3 6 4 8 11 9 9 11 9 8 11 14 15 12 12 11 13 11 13 14 14 13 6 4 4 5 2 1 1 1 3 1 3 10 17 19 14 11 3 5 6 9 10 8 10 9 9 8 5 8 5 8 7 7 7 5 6 7 9 5 6 7 10 5
16 18 17 16 16 16 18 20 21 21 22 17 4 3 3 3 1 5 6 8 3 6 3 6 7 6 6 3 4 9 11 11 11 8 8 6 10 10 12 6 4 5 10 12 9 2 8 9 11 3 1 3 2 6 8 2 6 16 15 15 6 4 6 8 12 14 14 12 10 9 11 9 9 6 9 6 7 7 9 8 5 7 11 7 4 7 15
17 17 17 16 15 15 17 19 21 22 23 21 1 1 2 1 3 3 2 2 5 9 6 10 12 11 7 4 5 9 13 12 9 7 7 14 13 9 1 4 5 10 14 16 11 5 5 5 6 5 2 3 2 2 5 2 7 9 6 11 7 7 7 7 11 13 15 13 12 7 11 11 10 11 7 10 8 6 8 7 6 9 9 10 8 13 15
17 18 17 17 15 14 16 18 20 22 24 20 3 2 3 2 3 2 8 4 5 6 13 14 10 12 9 4 6 10 11 13 9 5 6 7 5 2 2 0 2 4 9 8 4 1 4 3 1 1 6 3 4 2 3 2 5 6 4 6 4 5 8 8 11 10 10 9 10 9 10 9 13 11 11 13 13 11 8 5 7 13 7 10 12 13 15
17 17 17 16 15 13 14 17 19 20 24 14 1 4 3 4 4 4 7 3 7 9 7 7 8 8 9 4 5 9 11 12 12 8 5 4 3 1 2 5 6 8 10 4 2 2 2 3 2 3 5 9 3 2 1 2 5 5 4 1 3 11 4 12 13 10 13 13 11 4 7 10 13 18 16 7 4 5 4 2 3 7 1 2 16 14 11
16 16 16 16 14 14 12 15 17 17 19 6 6 4 5 4 4 5 6 7 4 4 5 6 6 5 4 2 7 11 13 14 14 8 4 2 3 6 10 11 7 4 3 8 6 9 8 7 7 7 4 5 4 2 3 1 4 6 4 3 3 10 5 1 5 7 4 3 7 4 5 4 4 3 1 1 2 1 4 3 2 4 1 4 3 8 9
15 16 16 16 14 13 11 12 14 14 13 4 4 3 5 6 4 4 3 3 3 5 5 7 5 3 2 6 10 8 16 17 11 5 3 7 4 6 8 6 3 3 3 10 9 10 10 12 10 8 7 7 8 5 4 2 1 2 3 2 1 1 5 4 6 6 3 3 4 6 8 5 2 2 2 6 7 9 5 2 1 2 7 7 7 10 9
16 15 15 15 14 13 11 11 12 13 7 7 6 6 7 6 7 7 3 3 3 3 6 5 4 4 11 11 14 15 14 15 6 6 3 4 7 8 6 6 3 1 1 3 11 9 11 13 12 7 5 6 6 8 7 6 3 1 2 3 2 2 3 6 5 5 2 2 4 2 7 8 2 4 2 1 5 9 10 2 3 0 4 3 6 7 7
16 15 15 15 14 13 11 10 10 11 6 2 3 5 5 6 6 3 3 3 5 2 3 6 7 8 12 15 12 12 13 14 12 6 5 3 5 9 12 10 7 2 8 12 10 8 9 5 5 4 4 4 6 7 4 4 7 7 1 4 4 3 1 4 2 7 4 1 3 4 5 3 4 2 3 5 8 13 11 6 5 5 7 10 10 3 7
15 15 15 14 14 13 11 10 10 10 8 3 4 6 4 6 6 4 4 4 5 3 6 6 10 13 13 15 14 12 13 11 9 8 3 6 7 11 6 3 5 5 11 12 13 6 4 3 5 3 4 6 4 6 5 6 6 10 10 1 2 3 3 1 4 2 2 4 3 3 2 4 4 2 4 5 8 6 10 8 9 6 7 10 10 8 4
16 15 15 14 14 14 13 11 9 9 9 6 5 5 5 5 4 3 2 3 5 2 4 10 11 9 14 15 13 15 13 12 13 5 6 6 6 9 10 6 9 10 9 9 5 1 3 3 1 3 4 4 3 3 4 2 1 4 11 7 1 5 3 3 2 1 5 4 5 3 1 2 6 2 3 2 2 1 7 4 2 3 8 3 8 6 7
15 15 15 14 14 14 13 12 11 10 9 8 4 5 5 5 5 4 3 3 6 8 5 6 4 11 13 13 12 11 8 9 11 10 6 5 5 9 7 11 13 14 12 5 3 2 1 1 1 3 4 2 0 1 3 1 0 3 7 7 1 2 4 3 6 2 4 7 4 2 3 2 2 4 8 5 2 8 7 8 2 7 9 4 10 10 11
15 15 15 14 14 14 14 13 11 9 10 9 5 6 7 5 5 5 5 4 4 7 3 4 8 10 9 10 10 9 7 7 7 6 6 5 8 15 13 14 15 12 8 2 0 1 1 1 1 1 2 2 3 1 2 1 1 1 2 11 12 7 5 5 7 3 4 5 5 2 3 2 3 4 5 4 5 6 5 9 4 5 7 8 3 11 10
15 15 15 14 14 14 14 13 11 10 9 8 6 6 6 2 2 2 3 2 2 8 8 12 11 6 5 7 7 5 6 6 7 6 6 9 9 8 12 15 12 9 13 2 4 2 2 1 1 1 3 1 0 1 3 1 1 1 5 6 9 6 5 4 5 4 1 4 4 2 1 3 3 5 7 6 2 4 5 4 3 7 10 5 3 3 4
14 14 14 14 13 13 13 13 12 10 9 9 5 6 7 6 5 2 2 3 3 6 6 5 4 5 3 3 7 6 5 4 4 4 0 5 3 7 9 10 13 12 13 5 3 2 1 2 0 0 2 4 3 3 3 4 1 1 2 2 0 3 3 5 6 5 6 8 0 0 2 2 8 9 10 12 4 8 7 6 4 4 5 4 12 9 5
14 13 13 14 12 12 12 12 11 11 11 9 6 7 5 2 5 3 4 4 3 6 7 7 8 10 9 8 7 6 4 6 5 4 5 4 3 7 6 5 5 8 9 6 3 2 3 3 1 1 1 3 0 2 1 1 1 3 2 3 4 3 1 2 2 5 4 2 6 2 1 2 4 12 10 7 2 5 6 3 2 3 1 7 11 12 7
14 14 13 13 12 11 11 11 11 10 10 9 5 5 9 9 8 6 4 4 2 7 14 12 7 12 7 6 6 6 7 4 1 1 1 1 4 8 5 9 7 5 7 5 6 3 2 3 3 3 2 1 0 2 3 0 1 0 0 3 3 4 2 2 2 0 2 4 4 3 1 4 11 11 6 8 6 6 4 5 0 1 3 9 9 8 6
14 13 14 13 11 11 10 11 10 10 10 10 6 5 8 2 4 5 5 5 4 7 9 4 3 7 7 10 12 11 9 9 6 2 1 1 4 1 2 4 4 3 3 2 2 4 2 3 4 3 2 0 3 1 4 2 2 1 2 3 4 4 2 1 1 1 3 2 2 1 2 5 10 9 7 4 2 3 3 2 5 2 3 8 9 7 5
13 13 13 12 12 11 11 10 10 10 9 9 8 3 6 6 6 6 7 5 5 7 7 11 10 13 16 14 14 13 14 14 13 8 3 2 2 1 2 1 2 1 1 1 2 3 4 2 3 3 4 5 3 3 1 4 1 3 3 2 3 2 5 6 5 2 3 2 1 1 2 5 4 12 10 8 8 7 3 6 4 5 5 5 10 8 8
12 11 12 12 11 11 10 10 9 9 9 10 6 2 6 9 9 8 8 6 4 5 5 10 10 12 12 14 16 17 15 13 12 8 3 2 2 2 1 0 1 2 1 2 0 1 3 1 3 4 5 1 0 4 2 3 3 1 2 4 4 3 1 0 10 4 8 6 4 3 3 5 10 13 10 9 8 6 6 7 9 6 4 5 8 7 9
11 12 12 11 11 11 10 10 9 9 10 10 6 4 5 5 8 7 5 4 3 7 8 3 2 4 1 8 14 4 8 9 11 4 2 4 1 3 2 1 1 2 0 1 1 1 2 2 3 1 3 7 3 2 2 4 1 1 2 2 2 2 1 3 8 5 5 4 5 6 4 6 11 10 10 9 8 8 7 10 9 5 4 6 4 5 8
11 11 12 11 11 11 10 9 9 9 9 10 8 5 5 6 4 2 4 4 4 2 5 8 7 11 8 10 9 4 3 6 5 5 4 3 4 4 4 2 1 1 4 5 0 1 1 0 3 1 2 5 3 3 5 5 1 1 3 2 0 1 1 9 3 4 6 7 4 1 4 7 8 8 9 8 7 8 8 6 5 5 6 8 9 10 11
11 10 11 11 11 11 10 10 9 9 9 10 9 4 4 6 5 3 4 5 5 4 4 4 8 7 8 12 8 7 10 6 5 7 7 6 6 7 5 2 3 1 1 2 2 2 2 2 3 0 2 6 2 1 4 3 3 1 5 3 5 3 1 4 4 5 2 4 0 2 7 11 10 9 9 5 4 5 8 9 10 11 13 13 11 10 7
11 10 10 10 10 10 10 9 9 9 9 9 6 4 5 7 6 4 4 4 3 3 2 5 6 11 9 14 15 9 7 5 5 4 4 6 6 4 2 2 3 3 3 4 2 2 1 1 2 2 3 4 5 4 2 5 2 1 2 1 1 5 4 1 7 9 5 6 6 4 9 4 3 5 6 4 3 8 8 9 11 11 12 10 12 13 11
10 10 10 10 10 10 9 9 8 9 8 10 8 7 6 6 5 5 6 5 4 3 3 6 8 12 13 12 8 6 7 6 5 4 3 4 6 4 4 4 2 1 2 2 5 3 2 2 3 2 3 3 3 5 2 1 1 4 4 5 1 6 6 4 6 8 6 4 3 2 6 7 3 3 3 5 8 11 9 7 5 7 8 5 6 8 10
9 9 10 10 10 9 9 8 8 8 10 7 7 8 7 8 9 7 7 5 4 5 5 6 6 4 3 7 11 11 9 5 5 3 3 5 5 6 6 4 3 2 1 0 1 1 1 3 2 2 2 1 4 5 4 4 3 2 3 5 2 2 3 3 6 8 5 5 5 3 3 5 2 1 2 4 4 8 8 3 2 4 3 2 2 1 1
9 9 10 10 9 9 8 8 8 8 8 5 3 2 3 2 1 3 1 4 4 1 1 3 5 5 4 6 7 7 5 6 6 6 5 5 4 3 7 4 3 3 2 2 0 2 3 2 3 2 2 1 1 1 2 2 3 2 3 4 7 8 8 6 3 7 6 3 3 2 4 5 3 3 2 3 3 4 6 6 6 6 5 3 5 5 4
10 9 9 9 9 8 8 8 7 7 5 2 2 2 1 2 2 2 5 5 5 1 1 1 6 6 8 4 5 10 8 5 5 5 6 5 4 4 3 4 2 3 0 1 0 3 0 1 2 3 2 2 1 2 1 1 2 2 2 3 7 8 7 6 5 6 7 7 7 6 6 4 1 4 12 10 9 9 8 7 7 7 7 7 7 5 6
9 8 8 8 8 8 8 8 7 6 1 2 2 2 2 2 2 9 10 5 5 2 0 2 4 2 3 4 3 3 5 8 7 3 2 3 4 4 2 5 3 4 3 3 2 0 1 4 1 3 2 2 2 1 2 2 3 1 1 2 4 5 5 8 9 9 7 6 9 11 10 8 9 8 4 5 8 8 8 7 7 6 8 6 5 6 6
9 8 8 7 8 8 8 8 8 5 3 6 11 15 19 23 24 19 10 3 1 2 1 1 4 3 2 5 6 6 3 3 3 4 2 3 3 2 2 2 1 1 4 1 1 2 2 2 1 2 4 0 2 1 2 0 1 1 3 4 4 6 9 8 9 10 10 9 8 10 7 6 5 5 5 7 8 8 8 8 7 7 9 10 11 11 12
7 7 7 7 7 8 8 9 8 8 7 5 5 5 5 14 14 17 3 2 1 2 1 1 2 2 5 5 3 7 1 3 2 3 2 1 2 3 3 2 1 1 1 4 3 0 3 1 2 2 4 2 2 3 2 2 4 2 2 4 7 8 9 11 10 11 10 10 9 9 6 5 5 8 11 11 10 9 8 9 10 11 9 10 10 9 7
7 6 6 7 7 8 10 10 4 1 2 3 5 6 7 5 1 5 9 3 1 1 0 2 1 2 4 4 2 4 1 1 1 2 3 3 3 3 1 2 1 0 1 0 1 2 1 3 4 2 1 2 3 2 1 5 11 8 7 7 6 7 10 11 7 6 8 8 9 9 9 11 13 11 8 8 9 8 10 9 8 8 9 8 7 7 7
5 5 6 7 9 8 5 4 3 2 2 3 5 5 4 4 4 4 5 2 2 0 1 2 1 3 2 3 3 3 2 3 2 2 3 1 1 1 1 3 1 4 2 2 2 0 1 2 3 1 1 4 5 3 3 8 11 12 13 12 8 8 5 6 6 8 10 11 11 10 10 10 10 7 6 6 7 7 7 8 9 8 7 6 6 7 6
4 5 7 8 4 0 2 2 2 4 4 4 4 5 6 3 0 1 2 1 1 1 2 2 3 4 1 3 2 4 2 3 2 2 2 2 4 1 2 1 3 1 2 1 0 1 4 1 4 7 8 6 4 5 8 10 11 11 10 8 7 9 9 8 5 9 12 13 13 11 9 9 8 7 7 7 6 5 8 8 6 5 5 6 6 6 5
3 4 1 1 1 1 1 0 1 4 7 10 8 5 1 1 1 0 1 0 2 3 2 1 4 3 2 1 4 5 2 3 2 2 2 1 1 1 1 1 2 1 2 2 3 2 2 5 7 8 8 7 8 10 9 8 9 9 9 9 9 8 8 7 9 11 10 8 8 7 7 8 7 5 5 6 6 6 4 4 4 4 5 5 5 5 6
1 1 1 1 1 1 1 2 5 11 7 4 0 0 1 1 1 1 2 2 1 2 2 4 5 4 3 3 6 5 0 0 3 2 2 2 1 2 1 1 1 1 1 1 1 1 3 6 3 5 8 6 9 9 8 8 9 10 10 10 10 10 9 9 8 9 7 5 2 2 3 3 3 4 4 4 4 4 4 4 4 4 4 5 6 6 8
1 1 1 1 2 3 4 6 9 7 1 1 0 1 1 1 2 1 1 1 1 2 3 4 5 5 8 8 2 4 2 2 2 3 0 3 0 1 1 0 1 1 0 1 1 2 5 5 1 3 6 6 6 6 7 8 9 9 9 10 11 11 10 10 10 8 8 7 7 7 6 5 4 4 4 4 5 6 6 5 4 5 5 4 4 3 4
1 2 2 2 2 3 4 5 4 1 0 0 0 1 0 1 2 1 0 2 2 2 3 4 2 2 4 5 5 4 4 1 1 1 1 0 1 1 2 1 1 2 1 1 0 2 3 4 4 5 5 4 5 6 6 7 8 8 9 9 10 9 9 8 8 8 8 8 6 6 5 5 5 4 3 3 3 4 5 6 6 8 7 5 4 4 3
1 1 2 3 4 4 4 1 1 0 1 1 1 1 1 2 1 0 1 1 2 2 2 2 1 2 5 4 3 1 2 0 0 0 1 1 2 1 0 1 1 2 1 1 1 2 3 4 3 4 2 2 3 3 5 6 6 7 7 7 7 7 7 7 7 6 5 5 4 5 5 5 5 5 4 5 4 4 3 4 5 6 5 4 4 3 4
7 6 2 2 2 1 1 1 1 0 0 1 2 2 1 0 2 2 1 1 1 1 1 2 3 1 2 2 2 0 1 1 1 2 2 1 1 1 1 1 1 1 1 0 2 2 5 4 3 2 2 3 5 5 6 5 4 5 5 6 6 5 6 6 7 5 5 4 4 4 5 5 5 5 5 4 3 4 3 3 4 4 4 4 4 4 5
3 1 1 1 1 1 0 1 1 1 1 0 1 0 1 2 4 0 1 2 1 2 1 1 2 3 0 3 1 1 3 2 2 1 1 0 1 1 1 1 0 2 0 3 3 5 5 3 3 1 2 2 4 4 5 6 5 5 6 8 8 7 7 6 5 5 6 4 3 3 3 4 4 4 4 4 4 4 4 4 4 4 5 4 4 4 5
1 1 0 1 1 2 1 1 1 1 1 1 1 2 1 1 3 0 1 3 2 4 4 1 3 5 2 3 2 1 0 1 1 2 1 1 2 1 1 1 2 1 2 4 3 2 2 3 2 2 3 4 4 4 5 5 6 7 6 6 8 6 5 6 5 4 4 4 4 4 4 4 4 4 4 5 5 4 3 4 4 4 5 5 6 7 7
1 0 1 2 3 2 1 0 0 2 2 1 2 3 1 4 1 3 4 2 3 5 5 2 3 4 4 1 1 1 2 1 2 1 1 1 1 1 1 1 1 3 4 3 3 3 3 1 2 3 3 3 3 4 5 5 5 5 5 5 5 5 5 4 5 5 4 5 5 4 4 4 4 4 4 4 4 4 4 3 2 3 4 6 7 7 8
1 1 0 0 0 1 0 0 2 3 2 2 4 4 6 6 6 1 4 4 6 5 3 1 3 2 3 2 2 2 1 1 1 1 1 2 1 2 2 2 2 3 3 3 4 3 1 0 1 2 3 4 4 4 4 4 4 4 3 3 3 4 5 5 5 4 5 5 5 4 4 3 3 3 3 4 4 5 3 1 3 3 3 5 6 6 6
1 2 0 1 1 0 1 2 3 3 3 4 5 4 2 1 4 5 3 2 2 4 7 4 4 6 4 2 2 0 1 1 2 2 0 0 0 2 2 3 3 2 2 3 2 2 2 1 0 1 2 3 3 3 3 4 4 4 3 3 4 4 4 5 5 4 4 5 5 4 4 4 4 4 4 4 4 4 3 4 5 4 4 5 7 7 6
0 0 1 1 1 1 2 5 5 5 7 8 8 9 4 7 4 4 5 3 5 5 2 2 0 1 1 2 1 2 2 2 2 1 1 2 2 0 1 2 2 3 2 1 3 3 3 2 1 0 1 2 2 3 3 3 3 3 3 3 4 4 4 5 6 5 4 4 4 4 5 5 4 4 4 3 3 4 4 4 5 4 4 5 6 6 5
1 2 1 1 4 3 5 4 6 7 8 7 7 6 7 5 5 5 4 6 6 5 5 2 1 2 1 1 1 1 0 1 1 0 2 2 1 1 3 3 2 2 0 0 2 3 2 1 0 1 2 2 3 3 4 5 4 4 4 4 4 4 4 5 7 7 5 4 5 5 4 5 5 5 4 5 4 4 4 5 4 4 4 3 3 3 4
0 1 2 2 0 3 4 5 4 5 9 8 8 7 4 3 3 4 5 3 5 5 3 1 1 1 1 2 1 1 1 1 2 3 2 2 3 2 2 3 2 1 3 2 4 3 3 1 1 1 2 3 3 4 4 4 5 5 4 5 5 5 6 6 7 7 6 4 4 5 5 5 5 5 5 4 4 5 6 5 4 4 4 3 3 2 3
1 2 3 5 3 3 3 1 1 0 3 5 5 5 3 6 6 4 5 5 4 5 3 2 1 2 2 1 1 1 1 2 2 3 5 3 2 2 2 2 1 1 2 3 1 1 0 0 1 1 2 3 4 4 5 5 5 6 6 7 6 7 7 7 7 6 6 5 4 3 4 4 5 4 4 4 4 5 5 6 5 4 3 4 3 2 2
Wind_Direction
336 334 338 340 335 334 336 338 338 339 341 352 350 325 334 312 234 270 297 291 238 117 290 289 219 219 232 244 260 261 268 270 281 286 270 273 240 246 239 247 258 251 252 264 254 246 260 251 226 215 210 200 200 182 200 209 197 184 204 205 210 161 199 149 269 289 278 255 239 219 177 156 130 196 143 166 182 173 168 165 183 167 308 100 50 83 253
336 334 336 339 335 335 336 336 337 338 350 346 331 336 310 284 285 307 286 288 219 135 216 252 236 254 267 247 259 233 249 252 258 243 242 235 257 252 265 267 239 270 258 255 272 297 276 250 232 255 205 223 210 194 198 194 198 176 193 200 180 190 190 162 146 258 305 295 316 267 252 187 168 168 181 189 167 170 168 107 94 138 222 169 126 174 267
336 332 333 336 336 338 337 335 333 336 339 347 334 322 309 282 249 230 291 282 166 189 210 235 265 237 252 257 251 258 245 235 243 252 254 247 248 256 243 251 273 273 303 298 293 278 257 287 274 201 143 287 250 230 209 194 195 201 184 193 153 177 184 156 194 197 204 209 208 212 220 221 257 170 176 191 176 172 119 176 175 167 261 115 124 215 254
330 331 333 334 338 341 338 333 332 333 334 340 328 304 303 340 341 299 300 349 292 220 352 22 9 334 348 335 303 295 285 282 270 246 248 240 247 244 266 271 278 280 282 279 274 280 308 319 310 351 292 268 308 118 103 278 239 209 194 180 148 178 177 161 173 182 195 206 205 229 156 169 201 190 177 190 208 181 140 116 130 189 208 176 220 163 195
329 331 332 334 339 342 338 333 332 332 330 339 308 259 201 321 235 330 327 322 5 345 8 21 21 341 325 286 307 301 298 295 281 266 281 239 230 242 234 243 277 313 308 287 289 315 341 342 329 290 235 242 224 244 123 224 240 253 221 179 151 98 186 190 177 197 209 207 210 205 176 187 195 184 200 202 185 152 146 145 203 177 117 226 257 198 157
325 327 331 334 338 341 338 335 335 333 330 336 140 310 213 38 278 12 36 293 307 349 334 5 327 306 315 259 273 287 297 293 285 287 257 275 262 245 169 164 203 245 262 282 283 357 350 5 332 317 304 327 281 352 349 39 346 349 243 190 175 149 187 209 167 203 215 207 213 219 188 190 193 193 201 209 210 169 162 191 176 138 170 199 218 181 174
322 324 329 332 335 340 340 337 337 336 334 331 148 358 263 274 332 299 19 342 325 301 286 299 288 301 302 275 276 287 299 305 296 285 295 284 291 124 236 197 6 331 314 270 226 332 50 325 282 358 321 319 318 354 343 330 11 4 316 216 177 159 205 187 191 201 214 219 214 184 183 195 190 204 205 218 212 201 175 186 159 170 195 197 170 185 191
318 321 325 330 334 340 342 340 339 340 338 330 320 14 342 23 349 325 339 279 289 283 286 298 305 297 305 291 287 312 299 296 310 311 312 314 288 20 272 354 356 351 328 299 86 74 186 217 258 325 355 323 347 288 197 289 326 10 308 278 243 198 258 191 184 186 207 206 205 180 165 171 207 194 206 209 198 225 211 174 194 186 174 150 167 174 213
315 318 322 328 333 336 342 344 341 345 346 6 16 328 39 323 290 308 314 313 269 276 298 300 296 300 288 314 313 320 314 314 313 293 241 265 342 354 349 342 348 355 19 33 19 348 331 315 291 281 290 285 272 308 294 53 308 328 319 342 326 216 230 109 134 155 205 210 143 138 113 145 139 157 161 110 147 91 21 81 174 118 222 87 110 182 210
311 314 318 325 329 330 342 346 343 351 350 2 336 321 345 314 285 318 271 267 299 317 299 301 314 265 4 355 310 311 304 302 307 318 323 4 1 0 336 339 42 15 29 7 329 310 311 293 281 278 266 258 275 237 233 272 246 269 301 257 270 216 158 146 128 127 213 250 126 118 92 70 29 315 279 113 91 125 118 123 52 139 126 113 136 216 233
308 311 313 320 325 329 338 345 344 350 2 11 355 323 330 342 337 341 319 284 303 335 336 290 327 300 341 319 313 307 297 316 346 12 293 321 325 340 337 10 45 332 115 332 286 284 273 274 279 287 275 268 270 289 287 290 296 244 291 341 304 347 179 161 152 144 207 293 130 74 106 188 189 227 221 119 131 116 100 75 68 355 114 179 191 211 179
304 306 309 315 319 324 334 339 343 340 357 326 298 288 298 305 307 279 292 310 273 319 321 291 304 309 313 305 307 296 311 330 328 324 317 310 300 336 8 18 22 356 348 320 291 292 280 280 280 278 271 282 286 277 272 1 324 326 313 295 306 320 342 134 133 113 172 204 58 110 164 212 229 202 151 118 114 102 110 125 120 109 99 102 75 36 140
301 303 306 308 313 319 326 334 338 332 333 330 318 314 302 305 290 280 286 271 274 335 325 295 302 293 287 305 306 304 316 313 312 318 343 353 348 7 18 10 6 304 310 305 302 321 329 276 296 294 306 331 331 336 343 52 335 318 311 279 131 339 48 333 34 94 87 63 59 125 235 240 302 331 102 90 80 94 80 41 355 6 83 97 97 92 45
298 299 304 306 309 313 318 327 330 325 329 334 318 299 291 292 298 289 266 304 273 239 274 300 293 307 323 317 316 318 322 330 334 346 23 352 10 356 345 5 332 307 305 302 288 8 355 34 11 14 325 353 350 312 281 238 203 299 307 311 120 135 87 89 52 6 137 153 118 182 267 355 346 40 66 85 145 152 116 104 15 346 327 63 107 110 101
293 295 297 302 306 309 314 320 324 326 326 329 303 298 286 273 264 268 280 268 285 292 223 220 318 326 317 310 320 328 331 329 353 337 328 305 14 343 324 335 331 332 322 325 348 23 170 213 21 53 327 46 15 270 277 278 319 286 315 296 113 132 113 221 101 312 120 113 69 19 36 99 289 258 270 296 207 142 146 100 1 326 351 328 133 143 141
290 291 293 296 301 305 308 313 317 323 325 328 309 302 287 266 252 239 247 271 297 299 240 187 337 313 320 303 319 323 332 323 338 308 341 1 347 339 340 347 335 328 347 359 94 18 342 77 243 126 196 207 218 289 299 306 210 318 80 46 27 355 87 124 107 162 37 52 107 150 127 215 217 303 316 359 103 126 97 76 354 291 329 313 199 143 151
294 294 295 297 298 303 305 306 311 319 321 328 319 315 292 305 298 267 284 274 237 255 285 312 303 307 321 297 332 356 349 342 345 354 346 344 332 321 311 341 338 15 351 62 10 16 8 1 313 194 270 245 124 226 292 321 22 52 337 14 26 17 349 30 57 40 76 137 97 105 206 86 332 304 322 320 213 85 70 74 303 285 320 309 85 89 102
293 294 294 292 295 297 298 300 308 312 315 325 321 304 289 289 255 289 267 252 281 273 257 262 321 329 283 283 307 301 313 318 328 291 318 294 347 346 332 352 345 345 2 32 5 29 258 186 236 254 253 255 149 134 209 275 344 213 112 146 191 344 341 54 142 131 60 67 131 93 20 353 344 340 326 318 315 75 73 134 221 294 310 31 86 76 82
284 288 292 295 295 298 298 300 303 307 316 324 321 299 258 266 301 292 242 258 244 269 270 315 295 263 260 277 286 292 307 312 299 335 312 349 10 313 287 283 295 329 359 348 342 352 334 289 305 175 179 301 344 161 232 64 258 326 75 35 17 10 25 318 47 44 102 125 98 185 186 188 322 330 325 296 38 61 136 230 203 221 58 73 79 82 62
286 287 287 289 295 297 298 297 299 303 313 322 331 291 287 297 277 247 266 289 269 277 289 282 249 262 267 276 301 304 320 306 249 354 30 251 285 322 14 12 351 332 325 358 12 307 19 345 325 309 298 274 287 166 69 311 195 168 215 141 121 219 82 318 24 228 52 55 72 45 18 282 338 315 353 22 88 202 199 152 70 218 98 80 70 74 78
282 282 287 292 294 294 293 294 296 297 305 319 326 315 309 251 295 314 302 296 286 297 286 267 243 266 282 274 265 261 267 264 290 335 241 228 262 8 99 180 271 291 332 7 350 334 360 320 339 323 285 357 274 39 171 222 2 319 139 165 139 213 100 232 31 137 124 72 103 176 214 261 324 44 76 322 29 167 166 139 86 302 85 82 75 51 43
281 284 288 289 292 295 293 292 294 295 305 309 322 301 279 292 305 301 298 276 233 225 247 291 292 280 270 260 256 246 245 253 257 266 273 310 304 207 187 304 249 254 295 313 8 345 15 333 308 329 331 315 350 83 251 74 17 289 333 69 60 255 164 194 133 286 102 109 161 286 277 278 344 62 58 51 36 38 56 88 74 64 24 69 77 67 49
287 289 287 288 290 292 293 294 293 294 297 307 317 242 283 307 305 312 311 293 253 248 263 270 272 273 273 266 249 238 235 230 247 258 210 138 309 317 163 136 285 268 303 64 108 203 251 359 244 249 275 243 297 291 8 116 179 330 72 327 146 277 224 258 88 92 125 112 136 244 342 7 22 57 58 56 41 25 44 60 68 43 29 29 87 95 83
286 285 283 281 286 294 295 295 297 296 299 305 306 287 290 277 290 307 308 257 268 307 293 248 275 269 260 320 324 294 206 228 224 217 172 127 137 306 333 182 234 343 13 190 208 208 248 249 234 269 266 273 343 18 99 23 29 175 68 359 346 304 115 50 106 212 86 68 324 37 40 36 23 37 54 54 52 49 40 48 54 45 47 56 63 96 101
278 278 282 286 286 284 288 294 297 297 298 303 310 288 277 282 257 332 345 320 327 4 297 311 279 250 285 315 283 274 207 213 207 184 157 127 145 163 188 214 271 216 273 294 57 14 349 297 309 332 302 272 73 322 272 118 318 96 73 269 317 4 53 76 48 62 95 164 215 186 93 77 68 54 39 24 21 40 53 61 58 45 37 44 41 44 44
277 277 283 288 285 284 290 296 301 299 298 302 308 298 293 273 279 301 263 249 247 254 273 287 279 309 342 341 325 289 291 286 193 185 187 180 183 186 221 304 325 351 270 278 246 224 196 179 241 338 351 297 10 114 292 279 189 170 132 213 199 174 44 125 202 99 43 59 33 172 83 60 52 52 50 15 346 31 41 44 44 38 32 18 22 43 50
275 278 282 281 282 287 292 295 301 302 304 303 300 277 267 270 259 241 244 271 320 291 204 259 288 309 345 319 289 297 273 253 231 217 197 185 187 194 192 230 255 320 339 311 255 202 199 213 153 220 212 223 281 271 218 322 37 69 54 5 36 63 51 85 105 106 148 170 193 178 116 134 65 69 80 69 17 47 32 38 41 42 35 19 20 7 5
275 275 275 278 280 286 290 298 305 308 309 313 304 278 258 254 244 211 228 229 242 260 303 292 303 295 310 273 266 274 285 246 190 193 212 217 208 211 208 213 201 303 325 12 344 8 15 26 267 237 226 285 15 324 358 234 34 36 2 316 319 127 182 140 129 146 181 225 137 164 112 112 178 131 116 110 99 86 55 10 25 44 55 32 38 25 350
274 275 275 280 283 286 294 302 306 312 319 327 301 292 274 237 240 233 235 255 225 236 248 273 278 292 258 283 318 304 287 203 179 200 212 233 221 208 214 199 189 190 243 314 227 306 242 244 251 282 277 240 78 301 343 9 41 42 327 304 354 112 129 106 142 99 46 71 109 105 97 120 152 221 93 75 87 99 103 91 39 67 60 48 87 183 232
273 273 278 279 282 288 300 305 309 312 329 337 329 309 323 352 122 126 108 45 1 296 340 340 309 264 311 312 278 271 278 189 179 194 215 235 251 199 201 193 222 202 159 184 158 303 252 283 270 270 294 16 138 236 22 348 60 25 344 15 57 63 71 83 100 111 136 134 123 102 88 91 119 130 102 76 59 77 75 58 36 38 35 58 46 24 29
266 273 277 282 290 298 300 298 305 314 348 343 341 305 221 194 255 147 74 35 10 25 243 201 249 297 302 237 247 268 258 203 189 200 211 215 227 230 196 179 214 141 43 328 59 233 237 316 296 290 323 327 123 82 126 71 53 11 3 44 76 76 73 75 67 79 100 100 105 104 87 81 184 63 38 27 33 44 53 39 26 30 36 40 35 35 24
274 277 280 285 293 298 299 300 304 313 304 271 220 229 250 270 284 306 311 351 348 360 187 308 294 271 269 281 248 261 214 191 189 187 229 178 234 217 244 161 214 185 157 168 209 38 249 226 212 281 340 290 65 84 62 72 83 37 340 70 75 84 69 65 60 60 81 105 92 64 56 47 43 73 77 32 42 43 50 42 29 24 27 29 23 25 21
268 276 278 285 290 295 297 299 300 294 235 251 260 271 275 274 271 268 276 300 281 226 238 262 260 287 272 264 303 291 228 136 163 150 251 198 220 162 229 203 169 199 217 179 323 198 224 185 267 335 251 195 67 35 95 89 186 254 205 177 105 79 79 76 68 60 57 42 67 95 88 71 57 50 64 51 45 39 34 28 20 26 25 19 12 7 7
272 277 290 296 298 297 293 291 291 292 290 275 297 259 241 246 249 253 208 145 213 239 226 212 284 274 271 291 304 283 254 132 222 148 240 265 170 129 207 154 183 144 214 162 243 76 318 47 204 250 342 4 78 70 25 271 272 307 82 58 70 74 73 65 59 65 63 67 67 83 102 106 79 56 44 38 27 19 26 30 25 23 15 10 4 6 3
270 288 301 303 298 293 289 286 291 249 266 260 251 254 258 270 153 142 144 154 110 286 207 257 213 302 315 326 327 273 312 63 270 211 178 259 155 177 186 123 352 145 264 147 9 186 193 244 179 79 254 326 44 62 1 29 42 52 72 59 44 64 65 61 41 58 68 67 67 60 56 54 53 44 39 32 30 23 27 21 21 22 13 359 3 355 354
295 308 306 298 296 294 289 266 210 207 231 240 238 246 218 179 127 139 174 146 139 242 296 272 256 240 274 301 324 303 355 292 210 172 205 155 127 218 166 125 50 248 173 131 207 113 214 257 72 34 349 52 23 40 70 74 66 59 64 60 41 60 79 102 93 63 53 52 53 54 53 55 59 52 42 33 25 19 24 19 9 13 17 4 348 342 353
316 309 306 298 303 309 254 239 189 177 218 214 274 272 253 241 313 84 118 291 272 193 239 295 288 255 237 266 300 271 347 338 327 108 174 142 208 213 137 92 213 227 94 341 346 140 254 42 89 65 41 65 45 18 46 62 63 60 60 58 52 49 50 37 45 66 59 44 36 28 32 38 38 34 35 29 18 19 22 14 359 7 357 343 334 336 321
327 302 337 328 315 290 278 158 205 245 245 273 275 293 355 76 103 241 132 263 218 165 230 198 256 259 277 278 269 257 325 277 23 54 342 333 47 260 168 127 220 104 173 219 243 183 90 48 53 72 66 41 46 39 29 41 61 59 57 52 48 46 46 47 49 55 53 44 35 25 24 24 20 13 29 10 6 9 1 356 355 358 353 337 323 313 313
280 282 293 258 291 275 302 280 300 317 299 277 155 332 268 173 127 230 207 209 123 236 223 174 248 216 216 246 270 284 207 338 356 18 47 289 91 321 19 87 295 85 277 63 294 355 75 80 89 60 61 18 29 21 12 24 38 43 44 42 42 37 34 35 38 56 70 95 106 99 93 67 38 351 353 3 344 342 335 342 347 342 334 326 330 338 341
353 352 277 249 203 249 299 293 318 315 275 11 247 123 258 191 121 262 183 144 261 227 164 229 225 210 200 215 235 306 309 60 60 5 356 309 340 129 256 105 268 91 77 97 238 19 100 89 62 79 53 22 26 13 22 26 39 39 40 39 39 38 37 37 32 29 37 25 23 12 13 13 22 13 359 347 344 338 330 325 316 312 317 316 327 358 359
241 258 294 284 303 301 280 304 319 270 255 271 330 240 209 302 240 215 239 221 216 228 183 215 205 245 241 210 205 238 287 58 224 168 125 223 253 82 44 73 240 74 338 66 293 63 68 85 69 69 62 33 31 12 14 27 27 34 37 40 40 37 35 32 33 27 21 16 8 7 359 355 351 350 338 336 329 317 313 316 327 325 329 345 337 318 309
226 239 280 301 272 265 299 283 171 358 302 204 129 275 214 212 238 328 153 164 241 233 215 197 250 222 257 196 185 189 297 224 173 137 90 15 312 91 230 307 6 102 96 246 92 76 89 88 66 63 21 30 32 24 30 34 24 28 31 35 37 31 31 31 20 11 19 7 351 344 334 337 333 332 328 329 324 329 337 344 335 330 324 314 310 322 329
280 264 196 288 288 289 218 7 289 113 94 341 36 2 332 3 223 175 258 237 284 250 255 174 229 197 335 31 14 46 181 268 68 335 61 305 304 43 55 14 49 46 260 308 56 50 57 64 74 37 312 4 18 20 22 21 13 22 20 28 29 25 29 23 13 357 347 352 344 340 332 332 328 317 318 331 346 343 330 310 304 298 302 304 301 307 308
249 300 332 302 1 300 68 3 276 35 356 36 92 94 308 351 310 332 340 285 319 323 277 96 312 89 69 311 118 308 5 352 21 66 16 283 79 339 34 21 216 250 29 50 50 62 78 68 59 344 320 23 33 24 14 11 10 17 19 13 10 14 14 13 10 6 347 335 333 323 329 322 315 313 323 323 321 311 305 306 306 305 303 308 297 289 282
30 40 35 352 7 273 53 338 310 111 177 265 162 223 208 241 274 336 269 262 77 276 315 42 87 70 53 303 32 13 81 260 308 88 284 23 31 328 85 283 277 19 80 89 70 61 75 61 316 330 360 21 17 17 14 11 14 20 11 0 358 356 359 2 352 345 334 330 315 316 315 306 305 303 303 303 296 284 291 303 307 321 323 315 305 302 297
5 358 345 47 0 320 97 256 23 3 293 207 241 213 235 265 259 279 281 326 343 326 38 26 61 79 52 358 122 236 319 42 40 1 322 28 91 340 286 271 63 63 47 52 71 77 70 66 354 3 353 7 3 16 15 5 359 3 10 359 339 341 335 342 340 334 325 327 326 324 310 302 302 306 305 297 293 294 287 282 297 319 314 313 306 305 306
346 330 87 203 56 274 146 81 255 208 232 289 274 268 234 203 199 97 9 322 21 336 327 322 73 106 110 0 17 352 351 24 80 291 62 46 36 281 356 78 36 24 72 66 66 89 116 279 323 350 1 359 5 2 1 344 334 334 332 322 335 334 335 331 326 327 330 333 333 333 328 321 311 306 309 323 321 307 298 311 317 317 322 312 314 316 316
35 277 329 62 295 265 344 277 251 280 270 248 279 295 297 355 36 23 329 327 324 13 27 9 14 357 14 326 76 169 297 21 57 318 79 176 324 34 14 42 63 40 38 94 112 150 169 207 217 8 353 353 344 334 326 323 314 313 321 326 321 324 324 325 330 319 332 342 333 328 323 325 332 335 335 331 329 324 321 329 329 326 331 342 341 339 333
199 64 87 243 240 313 299 320 352 17 341 350 360 1 360 52 45 352 336 348 20 1 355 81 49 60 343 281 63 23 359 313 79 264 351 27 84 198 83 75 66 75 36 115 169 159 171 187 207 212 351 336 296 299 298 294 290 304 314 319 319 314 317 326 329 322 328 340 333 331 332 332 333 334 324 325 331 312 313 332 332 328 344 353 344 334 333
50 349 323 10 347 322 311 316 25 8 343 354 3 353 349 24 21 339 338 9 353 355 356 23 32 94 259 48 354 348 329 301 121 30 52 26 8 23 62 70 11 100 182 286 118 149 166 193 194 27 339 305 315 319 316 315 321 327 320 318 320 329 328 327 331 333 331 331 330 325 328 333 332 327 325 313 302 308 332 339 334 339 339 337 334 333 330
285 128 242 249 335 262 334 17 348 349 346 343 339 342 348 353 354 344 344 22 360 9 30 30 290 70 15 18 40 42 284 253 53 44 73 32 0 51 64 87 54 14 27 40 130 160 175 205 109 52 339 329 309 311 315 316 322 320 325 331 333 334 333 337 336 335 329 322 320 329 337 330 323 325 319 330 344 342 336 332 335 337 332 316 306 309 320
1 352 312 305 275 276 284 260 304 160 237 283 321 310 359 25 342 325 339 22 9 54 356 321 37 29 50 60 271 237 313 45 41 39 50 25 21 60 56 89 81 75 130 103 111 197 223 252 94 23 310 296 311 313 318 325 330 333 337 334 332 331 328 326 326 324 317 316 321 320 315 320 331 346 356 0 349 341 335 318 314 316 309 307 301 289 276